Regional Weather Roundup
Issued by NWS

Home | Current Version | Previous Version | Graphics & Text | Print | Product List | Glossary On
Versions: 1 2 3 4 5 6 7 8 9 10 11 12 13 14 15 16 17 18 19 20 21 22 23 24 25 26 27 28 29 30 31 32 33 34 35 36 37 38 39 40 41 42 43 44 45 46 47 48 49 50
000
ASUS44 KMEG 300310
RWRTN
TENNESSEE HOURLY STATE WEATHER ROUNDUP
NATIONAL WEATHER SERVICE MEMPHIS TN
1000 PM CDT FRI APR 29 2016

TNZ002-004-019-021-049-052-054-088>092-300400-
WEST TENNESSEE

CITY           SKY/WX    TMP DP  RH WIND       PRES   REMARKS
MEMPHIS INTL   CLOUDY    65  60  84 E12       29.82F
NWS MEMPHIS      N/A     63 N/A N/A MISG        N/A
JACKSON        CLOUDY    63  58  83 VRB5      29.88F
DYERSBURG      CLOUDY    63  57  82 E8          N/A
UNION CITY     CLEAR     61  61 100 E3        29.90S
LEXINGTON      CLEAR     63  57  82 SE3       29.91S
$$

TNZ008-025-027-028-033-062-065-066-300400-
NORTH MIDDLE TENNESSEE

CITY           SKY/WX    TMP DP  RH WIND       PRES   REMARKS
NASHVILLE      CLOUDY    68  60  75 SE5       29.97F
CLARKSVILLE    CLOUDY    63  59  87 E6        29.96S
SMYRNA         CLOUDY    66  61  84 CALM      29.98F
COOKEVILLE     CLOUDY    66  57  72 CALM      29.99S
CROSSVILLE     CLOUDY    66  52  60 CALM      30.04F
$$

TNZ061-075-076-078-094-096-097-300400-
SOUTH MIDDLE TENNESSEE

CITY           SKY/WX    TMP DP  RH WIND       PRES   REMARKS
FAYETTEVILLE   PTCLDY    63  61  94 S7        29.98F
TULLAHOMA      PTCLDY    64  59  82 SE5       30.00F
WINCHESTER     CLEAR     64  57  77 SE3       29.99F
MCMINNVILLE    PTCLDY    66  59  77 CALM      29.99F
COLUMBIA         N/A    N/A N/A N/A CALM      29.94F
SHELBYVILLE    CLEAR     64  61  88 SE5       29.98F
$$

TNZ017-018-042-046-047-300400-
NORTHEAST TENNESSEE

CITY           SKY/WX    TMP DP  RH WIND       PRES   REMARKS
TRI CITIES     CLOUDY    62  54  74 CALM      30.04R
$$

TNZ012-013-036-069-073-074-300400-
CENTRAL EAST TENNESSEE

CITY           SKY/WX    TMP DP  RH WIND       PRES   REMARKS
KNOXVILLE      CLOUDY    70  53  54 NE3       30.00R
OAK RIDGE      CLOUDY    69  59  70 CALM      30.03R
MORRISTOWN     MOCLDY    66  55  68 CALM      30.03R
$$

TNZ083-085-099-300400-
SOUTHEAST TENNESSEE

CITY           SKY/WX    TMP DP  RH WIND       PRES   REMARKS
CHATTANOOGA    CLOUDY    73  56  54 NE3       30.00R
$$

SKY/WX REPORTED AS FAIR MEANS FEW OR NO CLOUDS BELOW
12 THOUSAND FEET.





USA.gov is the U.S. government's official web portal to all federal, state and local government web resources and services.